Regional Weather Roundup
Issued by NWS New Orleans/Baton Rouge, LA

Home | Current Version | Previous Version | Text Only | Print | Product List | Glossary Off
Versions: 1 2 3 4 5 6 7 8 9 10 11 12 13 14 15 16 17 18 19 20 21 22 23 24 25 26 27 28 29 30 31 32 33 34 35 36 37 38 39 40 41 42 43 44 45 46 47 48 49 50

024
ASUS44 KLIX 251910
RWRLIX
NEW ORLEANS REGIONAL WEATHER ROUNDUP
NATIONAL WEATHER SERVICE NEW ORLEANS LA
100 PM CST SUN JAN 25 2015

NOTE: "FAIR" INDICATES FEW OR NO CLOUDS BELOW 12,000 FEET WITH NO
      SIGNIFICANT WEATHER AND/OR OBSTRUCTIONS TO VISIBILITY.
      SKY/WX - SKY CONDITION AND SIGNIFICANT WEATHER.
      TMP - AIR TEMPERATURE.     DP    - DEWPOINT TEMPERATURE.
      RH  - RELATIVE HUMIDITY.   PRES  - PRESSURE.
      HI  - HEAT INDEX.          WCI   - WIND CHILL INDEX.

*  THESE STATIONS ARE NOT NWS OR FAA STATIONS AND ARE NOT UNDER
   NWS QUALITY CONTROL.

LAZ038-040-048-061>063-065>067-069-252000-
SOUTHEAST LOUISIANA

CITY           SKY/WX    TMP DP  RH WIND       PRES   REMARKS
N.O. AUDUBON     N/A     67  46  46 MISG        N/A
N.O. INTL ARPT MOSUNNY   66  41  40 SW15      29.95F
N.O. LAKEFRONT SUNNY     65  41  41 W15G21    29.94F
N.O. DOWNTOWN*   N/A     64  39  39 W9        29.95F
SLIDELL        SUNNY     62  38  40 W13G22    29.93F
BATON ROUGE    SUNNY     66  38  35 SW18G28   29.92F
BOOTHVILLE     SUNNY     62  52  69 SW15G21   29.98F
BELLE CHASSE   MOSUNNY   66  39  37 SW15G23   29.95F
BOGALUSA*        N/A     65  37  34 SW14G22   29.91F
GALLIANO*      CLEAR     67  46  47 MISG      29.98F
NEW ROADS*       N/A     65  40  40 SW21      29.92F
GONZALES*        N/A     65  36  33 SW10G18   29.94F
HAMMOND*       SUNNY     66  36  32 SW15      29.92F
HOUMA*         NOT AVBL
PORT FOURCHON* CLEAR     63  52  67 W13G18    30.02F

$$

MSZ070-080>082-252000-
SOUTHERN MISSISSIPPI

CITY           SKY/WX    TMP DP  RH WIND       PRES   REMARKS
MCCOMB         SUNNY     65  38  36 SW10G21   29.87F
GULFPORT       SUNNY     60  41  49 S13G20    29.93F
BILOXI         SUNNY     60  44  54 SW18      29.93F
PASCAGOULA     SUNNY     60  41  49 SW9G24    29.93F
STENNIS ARPT*  SUNNY     63  32  31 W12G21    29.94F

$$

COASTAL OBSERVATIONS
LAKE AND NEARSHORE STATIONS

STATION/POSITION TIME  TEMP    WIND        PRES    WAVE
                       AIR SEA DIR/SP/G            HT/PER
                 (UTC) (F)     (DEG/KT/KT) (MB)    (FT/S)
PASCAGOULA       1900   57     240/ 11/ 15 1013.4
WAVELAND YACHT   1900   61     250/ 12/ 20 1012.7
GRAND ISLE       1900   61 57  260/ 13/ 17 1015.8
SOUTHWEST PASS   1900   59 46  220/  8/ 11 1016.0
NEW CANAL        1900   63 53  240/  9/ 13 1014.3
SHELL BEACH      1900   62 53  230/ 16/ 21 1014.1

OFFSHORE STATIONS

STATION/POSITION TIME  TEMP    WIND        PRES    WAVE
                       AIR SEA DIR/SP/G            HT/PER
                 (UTC) (F)     (DEG/KT/KT) (MB)    (FT/S)
64 S DAUPHIN ISL 1845   61 71  250/ 17/ 21 1015.6    3/ 7

$$




USA.gov is the U.S. government's official web portal to all federal, state and local government web resources and services.